Probability
0 0 0 0 0 0 0 0 0 0 0 0 0 0 0 0 0 0 0 0 0 0 0 0 0 0 0 0 0 0 0 0 0 0 0 0 0 0
0 0 0 0 0 0 0 0 0 0 0 0 0 0 0 0 0 0 0 0 0 0 0 0 0 0 0 0 0 0 0 0 0 0 0 0 0 0
0 0 0 0 0 0 0 0 0 0 0 0 0 0 0 0 0 0 0 0 0 0 0 0 0 0 0 0 0 0 0 0 0 0 0 0 0 0
0 0 0 0 0 0 0 0 0 0 0 0 0 0 0 0 0 0 0 0 0 0 0 0 0 0 0 0 0 0 0 0 0 0 0 0 0 0
0 0 0 0 0 0 0 0 0 0 0 0 0 0 0 0 0 0 0 0 0 0 0 0 0 0 0 0 0 0 0 0 0 0 0 0 0 0
0 0 0 0 0 0 0 0 0 0 0 0 0 0 0 0 0 0 0 0 0 0 0 0 0 0 0 0 0 0 0 0 0 0 0 0 0 0
0 0 0 0 0 0 0 0 0 0 0 0 0 0 0 0 0 0 0 0 0 0 0 0 0 0 0 0 0 0 0 0 0 0 0 0 0 0
0 0 0 0 0 0 0 0 0 0 0 0 0 0 0 0 0 0 0 0 0 0 0 0 0 0 0 0 0 0 0 0 0 0 0 0 0 0
0 0 0 0 0 0 0 0 0 0 0 0 0 0 0 0 0 0 0 0 0 0 0 0 0 0 0 0 0 0 0 0 0 0 0 0 0 0
0 0 0 0 0 0 0 0 0 0 0 0 0 0 0 0 0 0 0 0 0 0 0 0 0 0 0 0 0 0 0 0 0 0 0 0 0 0
0 0 0 0 0 0 0 0 0 0 0 0 0 0 0 0 0 0 0 0 0 0 0 0 0 0 0 0 0 0 0 0 0 0 0 0 0 0
0 0 0 0 0 0 0 0 0 0 0 0 0 0 0 0 0 0 0 0 0 0 0 0 0 0 0 0 0 0 0 0 0 0 0 0 0 0
0 0 0 0 0 0 0 0 0 0 0 0 0 0 0 0 0 0 0 0 0 0 0 0 0 0 0 0 0 0 0 0 0 0 0 0 0 0
0 0 0 0 0 0 0 0 0 0 0 0 0 0 0 0 0 0 0 0 0 0 0 0 0 0 0 0 0 0 0 0 0 0 0 0 0 0
0 0 0 0 0 0 0 0 0 0 0 0 0 0 0 0 0 0 0 0 0 0 0 0 0 0 0 0 0 0 0 0 0 0 0 0 0 0
0 0 0 0 0 0 0 0 0 0 0 0 0 0 0 0 0 0 0 0 0 0 0 0 0 0 0 0 0 0 0 0 0 0 0 0 0 0
0 0 0 0 0 0 0 0 0 0 0 0 0 0 0 0 0 0 0 0 0 0 0 0 0 0 0 0 0 0 0 0 0 0 0 0 0 0
0 0 0 0 0 0 0 0 0 0 0 0 0 0 0 0 0 0 0 0 0 0 0 0 0 0 0 0 0 0 0 0 0 0 0 0 0 0
0 0 0 0 0 0 0 0 0 0 0 0 0 0 0 0 0 0 0 0 0 0 0 0 0 0 0 0 0 0 0 0 0 0 0 0 0 0
0 0 0 0 0 0 0 0 0 0 0 0 0 0 0 0 0 0 0 0 0 0 0 0 0 0 0 0 0 0 0 0 0 0 0 0 0 0
0 0 0 0 0 0 0 0 0 0 0 0 0 0 0 0 0 0 0 0 0 0 0 0 0 0 0 0 0 0 0 0 0 0 0 0 0 0
0 0 0 0 0 0 0 0 0 0 0 0 0 0 0 0 0 0 0 0 0 0 0 0 0 0 0 0 0 0 0 0 0 0 0 0 0 0
0 0 0 0 0 0 0 0 0 0 0 0 0 0 0 0 0 0 0 0 0 0 0 0 0 0 0 0 0 0 0 0 0 0 0 0 0 0
Height
5679 5675 5671 5666 5662 5656 5651 5645 5640 5636 5632 5625 5616 5609 5600 5593 5586 5578 5571 5562 5554 5545 5535 5526 5516 5507 5497 5488 5478 5469 5462 5456 5451 5447 5444 5442 5442 5444
5669 5664 5659 5653 5648 5642 5636 5630 5622 5616 5611 5605 5596 5587 5578 5570 5562 5554 5544 5534 5523 5511 5500 5488 5478 5468 5457 5448 5438 5431 5425 5420 5417 5415 5413 5412 5413 5413
5657 5652 5647 5641 5635 5628 5621 5614 5606 5598 5592 5587 5576 5566 5556 5547 5538 5528 5516 5504 5490 5476 5463 5451 5441 5432 5424 5418 5412 5408 5404 5401 5399 5397 5396 5395 5395 5395
5645 5640 5634 5628 5621 5614 5606 5597 5589 5580 5572 5567 5558 5547 5535 5523 5513 5501 5487 5472 5457 5443 5431 5421 5414 5408 5403 5399 5396 5393 5391 5389 5387 5385 5383 5382 5382 5381
5633 5627 5621 5614 5606 5598 5589 5580 5571 5562 5552 5544 5536 5524 5511 5496 5485 5472 5457 5442 5428 5416 5408 5401 5396 5392 5388 5385 5382 5381 5379 5377 5375 5373 5371 5370 5369 5368
5620 5613 5606 5599 5591 5582 5573 5564 5554 5543 5532 5522 5513 5501 5486 5470 5455 5443 5433 5419 5408 5398 5393 5388 5384 5380 5376 5373 5371 5369 5367 5364 5362 5360 5359 5357 5356 5354
5607 5600 5592 5584 5575 5566 5556 5546 5535 5524 5512 5501 5489 5476 5461 5446 5432 5420 5412 5404 5394 5385 5383 5376 5372 5369 5365 5361 5359 5357 5354 5352 5350 5348 5346 5344 5343 5341
5594 5586 5578 5568 5559 5550 5539 5528 5515 5502 5490 5477 5463 5448 5435 5422 5413 5403 5396 5391 5385 5376 5371 5367 5361 5358 5354 5350 5347 5345 5342 5340 5338 5336 5334 5332 5331 5329
5581 5572 5564 5554 5544 5535 5524 5511 5496 5479 5464 5451 5438 5424 5414 5405 5398 5391 5383 5377 5371 5363 5359 5357 5351 5347 5342 5338 5335 5333 5331 5328 5327 5325 5323 5322 5320 5318
5567 5558 5549 5540 5529 5518 5507 5493 5477 5459 5444 5429 5418 5408 5398 5390 5383 5377 5370 5365 5359 5349 5343 5342 5339 5335 5331 5326 5322 5321 5319 5317 5316 5314 5313 5311 5310 5307
5553 5544 5534 5524 5513 5501 5488 5473 5457 5439 5423 5410 5400 5393 5385 5376 5369 5363 5357 5351 5346 5339 5330 5327 5324 5322 5319 5314 5310 5308 5307 5306 5305 5303 5302 5300 5298 5296
5540 5529 5518 5507 5494 5479 5466 5452 5437 5423 5410 5399 5389 5381 5373 5365 5357 5350 5343 5337 5332 5327 5320 5315 5311 5307 5308 5304 5298 5295 5295 5294 5294 5293 5291 5289 5287 5285
5525 5514 5502 5489 5475 5460 5445 5431 5419 5409 5400 5390 5381 5373 5364 5356 5348 5339 5331 5324 5318 5313 5307 5303 5299 5294 5292 5293 5290 5285 5284 5284 5283 5282 5281 5279 5276 5273
5510 5498 5485 5471 5456 5441 5428 5416 5407 5398 5390 5381 5373 5365 5356 5348 5339 5331 5322 5314 5306 5300 5295 5291 5288 5284 5281 5281 5280 5278 5275 5274 5274 5273 5271 5269 5265 5261
5493 5480 5466 5453 5439 5426 5415 5406 5398 5390 5382 5374 5366 5357 5348 5339 5331 5323 5314 5306 5298 5290 5284 5281 5277 5275 5272 5271 5271 5270 5268 5267 5265 5264 5262 5259 5255 5251
5476 5462 5449 5436 5425 5415 5406 5398 5391 5384 5376 5368 5359 5350 5340 5331 5322 5314 5307 5299 5293 5285 5277 5272 5269 5266 5264 5263 5262 5262 5261 5260 5259 5256 5253 5250 5245 5240
5461 5448 5435 5423 5414 5406 5399 5392 5385 5377 5369 5360 5351 5342 5333 5323 5314 5306 5298 5290 5283 5278 5273 5268 5264 5260 5258 5256 5256 5255 5254 5254 5252 5249 5246 5242 5236 5231
5444 5432 5422 5412 5406 5400 5393 5387 5380 5372 5363 5354 5345 5335 5326 5317 5308 5299 5291 5283 5277 5271 5267 5264 5261 5259 5255 5251 5250 5251 5250 5248 5245 5241 5237 5233 5229 5223
5428 5418 5410 5404 5399 5394 5389 5383 5375 5367 5358 5349 5339 5330 5321 5311 5302 5294 5286 5279 5272 5267 5263 5259 5257 5255 5253 5251 5248 5246 5245 5242 5239 5235 5230 5225 5221 5216
5414 5407 5402 5398 5394 5390 5385 5378 5371 5363 5354 5345 5335 5325 5316 5306 5298 5289 5282 5275 5270 5265 5261 5258 5255 5253 5251 5249 5247 5244 5240 5237 5234 5230 5225 5219 5213 5208
5403 5398 5395 5393 5390 5386 5381 5374 5367 5359 5351 5341 5331 5321 5312 5303 5294 5286 5279 5274 5269 5265 5261 5258 5255 5252 5250 5248 5245 5242 5238 5233 5228 5224 5220 5214 5208 5202
5394 5392 5391 5389 5386 5382 5377 5371 5364 5356 5348 5338 5329 5319 5310 5301 5292 5285 5279 5275 5270 5266 5263 5260 5257 5254 5251 5247 5244 5240 5236 5231 5225 5220 5215 5210 5204 5198
5388 5388 5387 5385 5383 5379 5374 5368 5362 5354 5346 5337 5328 5319 5310 5301 5293 5287 5282 5277 5273 5269 5266 5262 5258 5255 5251 5247 5242 5238 5233 5229 5224 5219 5213 5207 5202 5196
Wind_Speed
48 49 51 52 53 54 56 59 62 63 62 63 65 67 69 72 74 76 78 81 84 87 91 95 98 101 104 106 106 105 104 101 100 98 98 98 98 100
50 52 53 54 55 57 59 61 63 65 67 67 69 71 73 75 78 81 84 89 93 97 101 104 105 104 102 97 89 81 74 70 68 67 66 67 68 69
52 53 54 55 57 60 61 63 64 67 68 68 71 74 77 80 84 88 93 98 101 103 102 100 95 88 77 67 59 53 48 46 45 45 46 47 49 51
53 54 56 58 60 61 62 64 66 68 71 72 73 77 82 87 92 96 100 101 99 94 87 80 70 60 52 46 42 39 37 37 37 38 39 41 42 43
54 56 58 60 61 63 64 66 68 71 75 77 79 84 90 96 99 99 96 89 81 73 65 57 50 45 42 39 38 36 35 34 34 35 36 38 40 41
57 58 60 61 62 64 66 69 72 76 80 83 87 92 97 99 97 89 78 68 60 55 51 47 43 41 40 38 36 35 34 33 33 33 33 35 36 38
58 59 61 62 64 66 69 73 77 81 86 90 95 98 97 90 81 71 60 52 48 48 45 43 41 40 39 38 37 35 34 34 33 32 32 33 33 34
58 59 61 63 66 69 73 78 83 88 93 97 98 95 85 74 63 55 50 46 43 44 43 40 40 40 40 39 38 36 35 34 33 33 32 32 32 33
58 59 62 65 69 73 77 82 89 95 98 97 91 80 68 59 54 50 48 46 43 44 42 39 40 39 39 39 38 36 35 35 34 32 31 31 31 31
58 61 64 68 73 77 82 87 92 94 91 83 74 64 57 53 51 49 47 45 42 43 44 40 38 37 38 39 39 37 35 34 33 32 30 30 30 31
60 64 68 72 77 82 87 90 91 85 76 66 58 54 52 51 50 48 47 45 42 41 43 42 39 37 35 37 38 37 35 34 33 31 31 30 31 31
63 67 72 77 82 87 89 88 81 69 59 53 51 50 49 48 48 47 46 45 43 40 40 39 37 37 31 32 36 37 34 32 31 31 31 30 31 31
66 71 76 81 85 87 85 76 65 54 48 46 45 45 45 46 45 45 45 45 43 40 39 36 33 32 31 27 31 35 34 31 30 29 30 30 32 33
69 74 79 83 85 81 72 60 51 45 42 41 42 42 43 44 44 43 43 42 42 41 38 36 31 29 27 25 25 29 32 31 28 27 28 31 33 35
73 78 81 82 78 68 56 46 40 38 38 39 40 41 43 43 42 41 41 40 40 40 39 35 31 27 25 22 20 23 26 27 27 27 29 31 33 34
76 79 80 75 65 51 42 36 35 35 37 38 40 41 42 42 42 41 39 38 36 35 37 34 30 26 22 19 17 17 19 20 24 27 29 30 32 32
77 78 72 61 48 38 33 31 33 35 37 39 41 41 41 41 41 41 39 37 35 32 29 28 27 25 22 17 12 12 14 18 22 25 25 25 27 28
77 70 59 45 34 28 28 30 32 35 38 39 40 41 40 40 39 38 37 35 32 29 25 21 19 19 19 19 12 8 11 16 20 22 23 22 23 25
69 57 43 31 25 24 25 28 32 35 37 38 39 39 39 39 38 36 34 31 28 25 22 19 15 13 12 14 16 12 11 15 18 21 23 23 23 24
55 41 29 21 19 21 24 28 31 34 36 37 38 38 39 38 36 34 31 28 24 21 19 18 15 13 11 10 13 16 18 18 18 19 21 24 24 24
39 26 18 15 17 20 23 27 30 33 35 37 38 38 38 37 34 31 28 25 23 20 18 17 16 14 13 12 14 17 19 20 19 19 20 21 21 21
22 14 11 13 16 19 23 26 29 32 34 36 38 38 37 36 33 29 26 23 22 20 19 17 16 15 15 15 16 17 18 20 21 22 21 20 18 17
9 7 8 12 15 19 23 26 29 32 34 36 37 37 36 34 32 29 26 23 22 20 18 18 18 17 17 18 18 18 19 20 20 20 20 19 17 17
Wind_Direction
296 296 296 296 296 297 298 299 299 299 299 300 299 300 300 299 298 297 296 295 294 293 291 290 289 288 286 284 283 281 279 276 274 272 269 267 265 263
297 297 298 298 299 299 300 301 301 301 302 303 303 303 302 302 301 300 299 298 297 296 295 293 292 290 288 287 286 284 281 278 275 272 270 268 267 265
297 298 299 300 301 301 302 303 304 305 305 305 305 305 304 303 303 302 302 301 299 298 296 294 293 292 290 288 286 283 280 278 276 273 271 269 267 266
299 300 301 302 302 303 304 306 306 307 306 306 306 306 305 305 305 304 303 302 300 298 296 295 294 293 291 287 284 282 280 277 275 273 270 268 267 266
301 302 303 303 304 306 307 308 308 308 308 308 308 308 307 307 306 305 304 302 300 298 297 297 297 294 291 287 285 284 282 280 277 274 272 270 270 269
303 303 304 306 307 308 309 309 309 309 309 309 309 309 308 307 307 306 304 302 300 298 299 298 296 293 291 289 287 287 285 283 280 279 277 275 275 274
303 304 306 308 309 310 310 311 311 310 310 310 309 309 308 308 307 306 304 303 301 299 299 296 294 293 291 290 288 288 288 286 285 285 284 282 281 280
305 307 308 309 310 311 312 312 312 311 310 310 310 309 309 308 307 306 305 302 300 297 296 293 292 291 290 289 288 287 287 286 286 286 286 285 285 284
307 308 309 311 311 312 313 313 312 311 311 311 310 310 310 308 308 306 304 303 301 297 293 290 289 289 289 287 286 285 284 283 283 282 282 284 286 286
308 310 311 312 313 313 313 313 312 312 311 310 310 310 310 309 308 307 304 302 302 300 295 292 290 289 287 285 284 282 280 280 279 278 279 281 283 284
310 311 312 313 313 313 314 314 313 313 313 312 312 312 312 311 310 308 307 305 305 303 299 296 293 290 287 284 282 280 277 277 276 275 277 280 282 284
312 312 313 314 314 315 315 315 315 314 314 314 314 315 315 314 312 311 310 308 307 305 301 299 295 290 285 281 280 278 277 276 275 275 278 281 284 286
312 312 313 314 316 316 316 316 316 316 316 316 316 316 316 316 315 314 312 311 309 308 306 304 300 292 287 277 272 276 277 278 277 278 281 284 287 289
312 313 315 317 317 318 318 318 318 319 319 320 320 319 319 318 317 317 315 314 312 311 309 309 307 299 289 280 269 269 276 279 279 280 285 289 291 292
314 316 317 318 319 318 318 319 321 322 323 324 323 322 321 321 320 319 318 316 315 313 311 311 311 307 298 287 273 268 271 276 280 284 289 292 292 291
316 318 318 319 319 318 319 322 325 326 327 327 326 325 324 323 322 322 321 319 316 313 311 311 312 311 306 297 285 274 271 270 276 285 291 293 292 292
317 318 318 318 318 319 322 325 329 331 331 330 330 329 328 326 324 324 324 322 320 315 311 309 312 314 313 307 295 283 275 277 284 291 295 296 296 296
318 318 318 317 317 320 324 329 332 334 334 333 333 333 332 330 329 328 327 327 326 324 320 316 313 313 315 317 315 298 286 290 296 302 306 305 302 301
318 317 316 315 317 323 328 333 336 337 337 336 335 335 336 335 334 333 332 332 332 332 332 332 330 325 318 312 316 318 311 308 309 311 312 312 311 307
316 315 313 313 319 327 333 337 340 341 341 341 340 339 339 339 339 338 338 340 343 345 344 344 345 343 336 325 318 320 323 322 319 318 318 319 318 316
314 311 310 315 325 332 338 342 345 346 346 346 346 345 345 344 345 346 348 351 355 358 358 356 355 354 350 342 333 328 328 329 329 329 330 329 326 325
309 307 313 324 333 338 343 346 349 350 350 351 351 351 352 352 354 357 1 5 7 8 7 7 5 2 357 349 342 338 337 337 336 336 339 342 342 342
308 316 329 335 339 342 346 349 352 354 355 355 356 357 359 1 4 8 12 14 14 15 16 15 12 6 0 355 352 349 346 344 343 344 346 351 356 359